CZ-6A DEB, 56679

Orbit data source: Space-Track

CZ-6A DEB, 56679 is space debris in SSO originally from a launch on Fri, 11 Nov 2022 UTC launched from the Taiyaun Space Center, China (TSC). Debris objects in space refer to the collection of defunct objects orbiting the Earth. Examples of debris include non-operational satellites, rocket bodies, and fragments generated from explosions, collisions, or faulty payload assembly.

Loading next visibility...
Identifier
56679, 2022-151AHF
Orbit
SSO
Country
Flag of CNCN / PRC
Related business
Manufacturer
SAST
Mission
Spacecraft
Bus & Motor
Unknown
Mass
Unknown
Launch date (UTC)
2022-11-11 (3 years ago)
Launch vehicle
Unknown
Launch site
Taiyaun Space Center, China (TSC)
Object type
Payload
Rocket body
Debris
Shape & HBR
Unknown shape, 0.1 m
Radar Cross Section
Small (<0.1 m²)

Expand to show TLE details & history
Last TLE update: 5 days ago

TLE from 5 days ago
0 CZ-6A DEB
1 56679U 22151AHF 25345.22452880  .00001182  00000-0  75127-3 0  9991
2 56679  98.9591 345.0327 0103892 230.3922 128.8038 14.03131891134788
Epoch: 2025-12-11T05:23Z
TLE epoch observation values (Epoch: 2025-12-11T05:23:19.288Z)
Latitude
0.00002°
Longitude
-175.98124°
Altitude
933.607 km
Speed
7.361 km/s
True Right ascension
23h 00m 07s
True Declination
0° 00' 00"
Sunlit
Object was in daylight at epoch
Visualization orbit readout
Latitude
Unknown
Longitude
Unknown
Altitude
Unknown
Speed
Unknown
Apparent Right ascension
Unknown
Apparent Declination
Unknown
Sunlit
N/A
Visualization observer readout
Local Sidereal Time
13:38:54
Azimuth
Unknown
Elevation
Unknown
Doppler factor
Unknown
Orbital elements
Apogee altitude
955.571 km
Perigee altitude
804.755 km
Semi-major axis
7,258.3 km
Eccentricity
0.01039
Inclination
98.9591°
RAAN
345.0327°
Arg. of periapsis
230.3922°
True anomaly
129.72403°
Mean anomaly
128.8038°
Eccentric anomaly
129.26467°
Mean motion
3.50987 °/min
Orbital period
102.57 mins
BSTAR
0.00075127
Loading maneuver chart data...
Computing Atmospheric mass density...
Loading historical data...
Loading historical data...
Loading historical data...
Loading historical data...
Loading historical data...
Loading historical data...
Loading historical data...

Documentation

Showing up to 5 results
|